• In Hungary
  • List of Countries
  • For 7 days
  • Water Temperature
  • Satellite Maps
  • Weather Map
  • News
  • Weather Widgets
  • user-avatar
    Login

    Hourly Weather Zmiev

    Today, 13 November, Tuesday

    Time Temperature Precipitation Wind Pressure Humidity
    00:00 -8°C° 0 mm 5 mps 762 mmHg 47%
    01:00 -8°C° 0 mm 5 mps 762 mmHg 48%
    02:00 -8°C° 0 mm 5 mps 762 mmHg 48%
    03:00 -8°C° 0 mm 5 mps 762 mmHg 48%
    04:00 -8°C° 0 mm 5 mps 762 mmHg 47%
    05:00 -10°C° 0 mm 5 mps 762 mmHg 46%
    06:00 -8°C° 0 mm 5 mps 762 mmHg 44%
    07:00 -8°C° 0 mm 5 mps 762 mmHg 41%
    08:00 -8°C° 0 mm 5 mps 762 mmHg 38%
    09:00 -7°C° 0 mm 5 mps 762 mmHg 36%
    10:00 -6°C° 0 mm 5 mps 762 mmHg 34%
    11:00 -5°C° 0 mm 5 mps 762 mmHg 32%
    12:00 -5°C° 0 mm 5 mps 761 mmHg 33%
    13:00 -4°C° 0 mm 5 mps 761 mmHg 34%
    14:00 -4°C° 0 mm 5 mps 761 mmHg 35%
    15:00 -3°C° 0 mm 4 mps 761 mmHg 39%
    16:00 -4°C° 0 mm 4 mps 761 mmHg 43%
    17:00 -5°C° 0 mm 3 mps 760 mmHg 47%
    18:00 -5°C° 0 mm 3 mps 760 mmHg 49%
    19:00 -5°C° 0 mm 4 mps 760 mmHg 50%
    20:00 -5°C° 0 mm 4 mps 760 mmHg 52%
    21:00 -5°C° 0 mm 4 mps 760 mmHg 55%
    22:00 -5°C° 0 mm 4 mps 759 mmHg 57%
    23:00 -5°C° 0 mm 4 mps 759 mmHg 60%

    Tomorrow, 14 November, Wednesday

    Time Temperature Precipitation Wind Pressure Humidity
    00:00 -5°C° 0 mm 3 mps 759 mmHg 62%
    01:00 -5°C° 0 mm 3 mps 759 mmHg 64%
    02:00 -5°C° 0 mm 3 mps 758 mmHg 67%
    03:00 -6°C° 0 mm 3 mps 758 mmHg 69%
    04:00 -6°C° 0 mm 3 mps 757 mmHg 71%
    05:00 -6°C° 0 mm 3 mps 757 mmHg 73%
    06:00 -5°C° 0 mm 4 mps 757 mmHg 74%
    07:00 -5°C° 0 mm 4 mps 757 mmHg 76%
    08:00 -5°C° 0 mm 4 mps 756 mmHg 77%
    09:00 -3°C° 0 mm 4 mps 756 mmHg 74%
    10:00 -2°C° 0 mm 4 mps 756 mmHg 71%
    11:00 0°C° 0 mm 4 mps 756 mmHg 68%
    12:00 0°C° 0 mm 4 mps 755 mmHg 68%
    13:00 0°C° 0 mm 4 mps 755 mmHg 69%
    14:00 0°C° 0 mm 4 mps 754 mmHg 70%
    15:00 +1°C° 0 mm 3 mps 754 mmHg 73%
    16:00 0°C° 0 mm 3 mps 754 mmHg 75%
    17:00 +1°C° 0 mm 2 mps 754 mmHg 78%
    18:00 -1°C° 0 mm 3 mps 754 mmHg 79%
    19:00 -1°C° 0 mm 3 mps 754 mmHg 79%
    20:00 -1°C° 0 mm 3 mps 754 mmHg 79%
    21:00 -1°C° 0 mm 3 mps 754 mmHg 81%
    22:00 -2°C° 0 mm 3 mps 754 mmHg 83%
    23:00 -2°C° 0 mm 3 mps 754 mmHg 85%

    Day after tomorrow, 15 November, Thursday

    Time Temperature Precipitation Wind Pressure Humidity
    00:00 -3°C° 0 mm 4 mps 754 mmHg 85%
    01:00 -3°C° 0 mm 4 mps 754 mmHg 86%
    02:00 -3°C° 0 mm 4 mps 754 mmHg 86%
    03:00 -3°C° 0 mm 4 mps 754 mmHg 86%
    04:00 -4°C° 0 mm 4 mps 754 mmHg 86%
    05:00 -4°C° 0 mm 4 mps 754 mmHg 86%
    06:00 -5°C° 0 mm 5 mps 754 mmHg 84%
    07:00 -5°C° 0 mm 5 mps 754 mmHg 83%
    08:00 -5°C° 0 mm 5 mps 755 mmHg 81%
    09:00 -4°C° 0 mm 5 mps 755 mmHg 75%
    10:00 -1°C° 0 mm 5 mps 755 mmHg 68%
    11:00 0°C° 0 mm 5 mps 755 mmHg 62%
    12:00 0°C° 0 mm 5 mps 755 mmHg 59%
    13:00 +1°C° 0 mm 5 mps 755 mmHg 55%
    14:00 +1°C° 0 mm 5 mps 755 mmHg 52%
    15:00 0°C° 0 mm 5 mps 755 mmHg 54%
    16:00 -1°C° 0 mm 5 mps 755 mmHg 57%
    17:00 -2°C° 0 mm 4 mps 756 mmHg 59%
    18:00 -2°C° 0 mm 4 mps 756 mmHg 60%
    19:00 -2°C° 0 mm 4 mps 756 mmHg 60%
    20:00 -4°C° 0 mm 5 mps 757 mmHg 61%
    21:00 -3°C° 0 mm 4 mps 757 mmHg 61%
    22:00 -4°C° 0 mm 4 mps 757 mmHg 62%
    23:00 -4°C° 0 mm 4 mps 757 mmHg 63%

    16 November, Friday

    Time Temperature Precipitation Wind Pressure Humidity
    00:00 -4°C° 0 mm 4 mps 757 mmHg 62%
    01:00 -4°C° 0 mm 4 mps 757 mmHg 62%
    02:00 -4°C° 0 mm 4 mps 757 mmHg 61%
    03:00 -4°C° 0 mm 4 mps 757 mmHg 58%
    04:00 -5°C° 0 mm 5 mps 757 mmHg 56%
    05:00 -6°C° 0 mm 5 mps 757 mmHg 53%
    06:00 -5°C° 0 mm 5 mps 757 mmHg 49%
    07:00 -5°C° 0 mm 5 mps 758 mmHg 45%
    08:00 -5°C° 0 mm 5 mps 758 mmHg 41%
    09:00 -4°C° 0 mm 5 mps 758 mmHg 39%
    10:00 -2°C° 0 mm 5 mps 758 mmHg 37%
    11:00 -2°C° 0 mm 6 mps 758 mmHg 34%
    12:00 -1°C° 0 mm 6 mps 758 mmHg 36%
    13:00 -1°C° 0 mm 6 mps 758 mmHg 37%
    14:00 +1°C° 0 mm 6 mps 758 mmHg 38%
    15:00 0°C° 0 mm 5 mps 758 mmHg 40%
    16:00 -1°C° 0 mm 5 mps 758 mmHg 43%
    17:00 -2°C° 0 mm 5 mps 758 mmHg 45%
    18:00 -2°C° 0 mm 5 mps 758 mmHg 45%
    19:00 -4°C° 0 mm 5 mps 758 mmHg 44%
    20:00 -4°C° 0 mm 5 mps 758 mmHg 44%
    21:00 -3°C° 0 mm 4 mps 758 mmHg 44%
    22:00 -4°C° 0 mm 4 mps 758 mmHg 44%
    23:00 -4°C° 0 mm 4 mps 758 mmHg 44%

    17 November, Saturday

    Time Temperature Precipitation Wind Pressure Humidity
    00:00 -4°C° 0 mm 4 mps 758 mmHg 43%
    01:00 -4°C° 0 mm 4 mps 758 mmHg 43%
    02:00 -4°C° 0 mm 4 mps 758 mmHg 43%
    03:00 -5°C° 0 mm 4 mps 758 mmHg 43%
    04:00 -5°C° 0 mm 4 mps 758 mmHg 43%
    05:00 -5°C° 0 mm 4 mps 758 mmHg 43%
    06:00 -5°C° 0 mm 4 mps 758 mmHg 42%
    07:00 -5°C° 0 mm 5 mps 758 mmHg 41%
    08:00 -5°C° 0 mm 5 mps 758 mmHg 39%
    09:00 -4°C° 0 mm 5 mps 758 mmHg 36%
    10:00 -1°C° 0 mm 5 mps 758 mmHg 34%
    11:00 0°C° 0 mm 5 mps 758 mmHg 31%
    12:00 0°C° 0 mm 5 mps 758 mmHg 30%
    13:00 +1°C° 0 mm 4 mps 757 mmHg 29%
    14:00 +1°C° 0 mm 4 mps 757 mmHg 28%
    15:00 0°C° 0 mm 4 mps 757 mmHg 30%
    16:00 -1°C° 0 mm 4 mps 757 mmHg 32%
    17:00 -1°C° 0 mm 3 mps 757 mmHg 34%
    18:00 -2°C° 0 mm 3 mps 757 mmHg 33%
    19:00 -2°C° 0 mm 3 mps 757 mmHg 33%
    20:00 -4°C° 0 mm 3 mps 756 mmHg 33%
    21:00 -3°C° 0 mm 2 mps 756 mmHg 32%
    22:00 -3°C° 0 mm 2 mps 756 mmHg 31%
    23:00 -3°C° 0 mm 2 mps 756 mmHg 31%

    18 November, Sunday

    Time Temperature Precipitation Wind Pressure Humidity
    00:00 -4°C° 0 mm 2 mps 755 mmHg 30%
    01:00 -4°C° 0 mm 2 mps 755 mmHg 30%
    02:00 -2°C° 0 mm 1 mps 755 mmHg 29%
    03:00 -4°C° 0 mm 2 mps 754 mmHg 29%
    04:00 -4°C° 0 mm 2 mps 754 mmHg 28%
    05:00 -4°C° 0 mm 2 mps 753 mmHg 28%
    06:00 -4°C° 0 mm 2 mps 753 mmHg 27%
    07:00 -4°C° 0 mm 2 mps 752 mmHg 27%
    08:00 -5°C° 0 mm 3 mps 752 mmHg 27%
    09:00 -2°C° 0 mm 3 mps 751 mmHg 26%
    10:00 -2°C° 0 mm 4 mps 750 mmHg 26%
    11:00 0°C° 0 mm 4 mps 750 mmHg 25%
    12:00 0°C° 0 mm 4 mps 749 mmHg 29%
    13:00 0°C° 0 mm 4 mps 748 mmHg 34%
    14:00 +1°C° 0 mm 4 mps 747 mmHg 38%
    15:00 0°C° 0.1 mm 4 mps 747 mmHg 46%
    16:00 -1°C° 0.1 mm 4 mps 747 mmHg 54%
    17:00 -1°C° 0.1 mm 3 mps 746 mmHg 62%
    18:00 -1°C° 0.1 mm 3 mps 746 mmHg 66%
    19:00 -1°C° 0.1 mm 3 mps 746 mmHg 69%
    20:00 -1°C° 0.1 mm 3 mps 745 mmHg 73%
    21:00 -1°C° 0.2 mm 3 mps 745 mmHg 76%
    22:00 -1°C° 0.2 mm 3 mps 745 mmHg 79%
    23:00 -1°C° 0.2 mm 2 mps 745 mmHg 82%
    Show more